Location: Bois de la Silve
(44.4667°N, 6.7833°E)
Time: 04:35:29
(UTC+00:00)

UNK - Pass Details

Date: 14 July 2020
Orbit: 667 x 685 km, 98.1° (Epoch: 06 August)

Event Time Altitude Azimuth Distance (km) Brightness Sun altitude
Exits shadow 01:33:05 40° 197° (SSW) 996 4.1 -18.9°
Maximum altitude 01:34:33 61° 259° (WSW) 767 3.8 -18.8°
Drops below altitude 10° 01:39:10 10° 340° (NNW) 2,125 6.8 -18.4°
Sets 01:41:27 0° 344° (NNW) 3,047 7.8 -18.2°
